"Period start","avg(HW err(1)/warn(2) (#))","avg(Visibility (m))","avg(Weather code (#))","avg(Precip intensity (mm/h))","min(HW err(1)/warn(2) (#))","max(HW err(1)/warn(2) (#))","std(HW err(1)/warn(2) (#))","med(HW err(1)/warn(2) (#))","min(Visibility (m))","max(Visibility (m))","std(Visibility (m))","med(Visibility (m))","min(Weather code (#))","max(Weather code (#))","std(Weather code (#))","med(Weather code (#))","min(Precip intensity (mm/h))","max(Precip intensity (mm/h))","std(Precip intensity (mm/h))","med(Precip intensity (mm/h))"
2014-04-05 00:00:00,2,35699,0,0.00,2,2,0,2,25947,50000,7970,33798,0,0,0,0,0.00,0.00,0.00,0.00
2014-04-05 00:10:00,2,39253,0,0.00,2,2,0,2,29582,50000,6998,40473,0,0,0,0,0.00,0.00,0.00,0.00
2014-04-05 00:20:00,2,34499,0,0.00,2,2,0,2,20869,50000,8343,32412,0,0,0,0,0.00,0.00,0.00,0.00
2014-04-05 00:30:00,2,39861,0,0.00,2,2,0,2,32645,45772,4266,39684,0,0,0,0,0.00,0.00,0.00,0.00
2014-04-05 00:40:00,2,33457,0,0.00,2,2,0,2,25059,42254,5977,33505,0,0,0,0,0.00,0.00,0.00,0.00
2014-04-05 00:50:00,2,27704,0,0.00,2,2,0,2,24129,42621,5160,26230,0,0,0,0,0.00,0.00,0.00,0.00
2014-04-05 01:00:00,2,34904,0,0.00,2,2,0,2,20089,47620,9000,32694,0,0,0,0,0.00,0.00,0.00,0.00
2014-04-05 01:10:00,2,38740,0,0.00,2,2,0,2,29042,50000,7510,39341,0,0,0,0,0.00,0.00,0.00,0.00
2014-04-05 01:20:00,2,34594,0,0.00,2,2,0,2,21610,50000,7637,35100,0,0,0,0,0.00,0.00,0.00,0.00
2014-04-05 01:30:00,2,39541,0,0.00,2,2,0,2,26347,50000,7675,40074,0,0,0,0,0.00,0.00,0.00,0.00
2014-04-05 01:40:00,2,38657,0,0.00,2,2,0,2,27337,50000,7497,37192,0,0,0,0,0.00,0.00,0.00,0.00
2014-04-05 01:50:00,2,38293,0,0.00,2,2,0,2,14716,50000,10601,39941,0,0,0,0,0.00,0.00,0.00,0.00
2014-04-05 02:00:00,2,44454,0,0.00,2,2,0,2,34522,50000,5435,46268,0,0,0,0,0.00,0.00,0.00,0.00
2014-04-05 02:10:00,2,32134,0,0.00,2,2,0,2,16247,45827,11109,32046,0,0,0,0,0.00,0.00,0.00,0.00
2014-04-05 02:20:00,2,31990,0,0.00,2,2,0,2,22320,41795,7277,32642,0,0,0,0,0.00,0.00,0.00,0.00
2014-04-05 02:30:00,2,34274,0,0.00,2,2,0,2,19186,49644,10649,33878,0,0,0,0,0.00,0.00,0.00,0.00
2014-04-05 02:40:00,2,40399,0,0.00,2,2,0,2,22353,50000,8847,42772,0,0,0,0,0.00,0.00,0.00,0.00
2014-04-05 02:50:00,2,37277,0,0.00,2,2,0,2,29687,48243,6385,36195,0,0,0,0,0.00,0.00,0.00,0.00
2014-04-05 03:00:00,2,32891,0,0.00,2,2,0,2,19563,50000,9611,31092,0,0,0,0,0.00,0.00,0.00,0.00
2014-04-05 03:10:00,2,28946,0,0.00,2,2,0,2,18817,39424,5845,30129,0,0,0,0,0.00,0.00,0.00,0.00
2014-04-05 03:20:00,2,32236,0,0.00,2,2,0,2,19513,48148,9782,30442,0,0,0,0,0.00,0.00,0.00,0.00
2014-04-05 03:30:00,2,36171,0,0.00,2,2,0,2,28569,46465,6901,32347,0,0,0,0,0.00,0.00,0.00,0.00
2014-04-05 03:40:00,2,38222,0,0.00,2,2,0,2,29432,50000,6751,37286,0,0,0,0,0.00,0.00,0.00,0.00
2014-04-05 03:50:00,2,41881,0,0.00,2,2,0,2,27117,50000,6999,41470,0,0,0,0,0.00,0.00,0.00,0.00
2014-04-05 04:00:00,2,35116,0,0.00,2,2,0,2,19209,50000,9222,35609,0,0,0,0,0.00,0.00,0.00,0.00
2014-04-05 04:10:00,2,33895,0,0.00,2,2,0,2,25261,48174,7324,33224,0,0,0,0,0.00,0.00,0.00,0.00
2014-04-05 04:20:00,2,31913,0,0.00,2,2,0,2,21848,41061,6921,32426,0,0,0,0,0.00,0.00,0.00,0.00
2014-04-05 04:30:00,2,33111,0,0.00,2,2,0,2,16578,48915,9988,33769,0,0,0,0,0.00,0.00,0.00,0.00
2014-04-05 04:40:00,2,31716,0,0.00,2,2,0,2,19768,44702,7921,33384,0,0,0,0,0.00,0.00,0.00,0.00
2014-04-05 04:50:00,2,32351,0,0.00,2,2,0,2,20459,39888,5347,33184,0,0,0,0,0.00,0.00,0.00,0.00
2014-04-05 05:00:00,2,34920,0,0.00,2,2,0,2,28489,41460,3981,36240,0,0,0,0,0.00,0.00,0.00,0.00
2014-04-05 05:10:00,2,30359,0,0.00,2,2,0,2,21376,41061,6697,30268,0,0,0,0,0.00,0.00,0.00,0.00
2014-04-05 05:20:00,2,25357,0,0.00,2,2,0,2,13679,31093,4693,26172,0,0,0,0,0.00,0.00,0.00,0.00
2014-04-05 05:30:00,2,31770,0,0.00,2,2,0,2,24757,47177,6833,30784,0,0,0,0,0.00,0.00,0.00,0.00
2014-04-05 05:40:00,2,30912,0,0.00,2,2,0,2,22006,46016,6857,28820,0,0,0,0,0.00,0.00,0.00,0.00
2014-04-05 05:50:00,2,34933,0,0.00,2,2,0,2,18514,50000,9004,35886,0,0,0,0,0.00,0.00,0.00,0.00
2014-04-05 06:00:00,2,39078,0,0.00,2,2,0,2,23251,50000,8563,42217,0,0,0,0,0.00,0.00,0.00,0.00
2014-04-05 06:10:00,2,37188,0,0.00,2,2,0,2,26556,50000,6742,38994,0,0,0,0,0.00,0.00,0.00,0.00
2014-04-05 06:20:00,2,33298,0,0.00,2,2,0,2,17471,50000,9834,32873,0,0,0,0,0.00,0.00,0.00,0.00
2014-04-05 06:30:00,2,36157,0,0.00,2,2,0,2,24589,50000,8814,35715,0,0,0,0,0.00,0.00,0.00,0.00
2014-04-05 06:40:00,2,44992,0,0.00,2,2,0,2,38335,50000,3640,44490,0,0,0,0,0.00,0.00,0.00,0.00
2014-04-05 06:50:00,2,29580,0,0.00,2,2,0,2,13554,50000,11375,28575,0,0,0,0,0.00,0.00,0.00,0.00
2014-04-05 07:00:00,2,34094,0,0.00,2,2,0,2,24511,46346,7637,34588,0,0,0,0,0.00,0.00,0.00,0.00
2014-04-05 07:10:00,2,37495,0,0.00,2,2,0,2,24689,50000,7897,37922,0,0,0,0,0.00,0.00,0.00,0.00
2014-04-05 07:20:00,2,39043,0,0.00,2,2,0,2,29992,49303,5930,38516,0,0,0,0,0.00,0.00,0.00,0.00
2014-04-05 07:30:00,2,38954,0,0.00,2,2,0,2,27269,47723,6590,40572,0,0,0,0,0.00,0.00,0.00,0.00
2014-04-05 07:40:00,2,38405,0,0.00,2,2,0,2,28130,50000,6677,37750,0,0,0,0,0.00,0.00,0.00,0.00
2014-04-05 07:50:00,2,35318,0,0.00,2,2,0,2,24642,48674,7762,32124,0,0,0,0,0.00,0.00,0.00,0.00
2014-04-05 08:00:00,2,40296,0,0.00,2,2,0,2,33931,50000,5164,38863,0,0,0,0,0.00,0.00,0.00,0.00
2014-04-05 08:10:00,2,39989,0,0.00,2,2,0,2,26987,50000,8878,41116,0,0,0,0,0.00,0.00,0.00,0.00
2014-04-05 08:20:00,2,42201,0,0.00,2,2,0,2,34080,50000,4575,41906,0,0,0,0,0.00,0.00,0.00,0.00
2014-04-05 08:30:00,2,46706,0,0.00,2,2,0,2,36324,50000,3879,47743,0,0,0,0,0.00,0.00,0.00,0.00
2014-04-05 08:40:00,2,40744,0,0.00,2,2,0,2,34160,50000,5659,37896,0,0,0,0,0.00,0.00,0.00,0.00
2014-04-05 08:50:00,2,44083,0,0.00,2,2,0,2,34492,50000,4394,43400,0,0,0,0,0.00,0.00,0.00,0.00
2014-04-05 09:00:00,2,41476,0,0.00,2,2,0,2,32106,50000,6976,39373,0,0,0,0,0.00,0.00,0.00,0.00
2014-04-05 09:10:00,2,42465,0,0.00,2,2,0,2,36982,50000,4603,41938,0,0,0,0,0.00,0.00,0.00,0.00
2014-04-05 09:20:00,2,44998,0,0.00,2,2,0,2,32657,50000,5588,47000,0,0,0,0,0.00,0.00,0.00,0.00
2014-04-05 09:30:00,2,44791,0,0.00,2,2,0,2,39218,49830,3474,44715,0,0,0,0,0.00,0.00,0.00,0.00
2014-04-05 09:40:00,2,42548,0,0.00,2,2,0,2,34989,50000,5377,42470,0,0,0,0,0.00,0.00,0.00,0.00
2014-04-05 09:50:00,2,35177,0,0.00,2,2,0,2,28398,40386,3384,34850,0,0,0,0,0.00,0.00,0.00,0.00
2014-04-05 10:00:00,2,42932,0,0.00,2,2,0,2,37368,48395,3278,42757,0,0,0,0,0.00,0.00,0.00,0.00
2014-04-05 10:10:00,2,43149,0,0.00,2,2,0,2,33488,50000,4821,44398,0,0,0,0,0.00,0.00,0.00,0.00
2014-04-05 10:20:00,2,43148,0,0.00,2,2,0,2,36883,48284,3376,44071,0,0,0,0,0.00,0.00,0.00,0.00
2014-04-05 10:30:00,2,45021,0,0.00,2,2,0,2,38013,50000,3519,44504,0,0,0,0,0.00,0.00,0.00,0.00
2014-04-05 10:40:00,2,48138,0,0.00,2,2,0,2,39999,50000,3278,50000,0,0,0,0,0.00,0.00,0.00,0.00
2014-04-05 10:50:00,2,47553,0,0.00,2,2,0,2,39621,50000,3398,49678,0,0,0,0,0.00,0.00,0.00,0.00
2014-04-05 11:00:00,2,48296,0,0.00,2,2,0,2,42929,50000,2218,49042,0,0,0,0,0.00,0.00,0.00,0.00
2014-04-05 11:10:00,2,48392,0,0.00,2,2,0,2,43421,50000,2094,49322,0,0,0,0,0.00,0.00,0.00,0.00
2014-04-05 11:20:00,2,49193,0,0.00,2,2,0,2,47668,50000,840,49362,0,0,0,0,0.00,0.00,0.00,0.00
2014-04-05 11:30:00,2,48358,0,0.00,2,2,0,2,45196,50000,1550,48246,0,0,0,0,0.00,0.00,0.00,0.00
2014-04-05 11:40:00,2,49797,0,0.00,2,2,0,2,47971,50000,609,50000,0,0,0,0,0.00,0.00,0.00,0.00
2014-04-05 11:50:00,2,47935,0,0.00,2,2,0,2,43544,50000,1815,47942,0,0,0,0,0.00,0.00,0.00,0.00
2014-04-05 12:00:00,2,49447,0,0.00,2,2,0,2,46866,50000,1118,50000,0,0,0,0,0.00,0.00,0.00,0.00
2014-04-05 12:10:00,2,49303,0,0.00,2,2,0,2,46315,50000,1120,50000,0,0,0,0,0.00,0.00,0.00,0.00
2014-04-05 12:20:00,2,48429,0,0.00,2,2,0,2,41866,50000,2446,49600,0,0,0,0,0.00,0.00,0.00,0.00
2014-04-05 12:30:00,2,49500,0,0.00,2,2,0,2,47206,50000,997,50000,0,0,0,0,0.00,0.00,0.00,0.00
2014-04-05 12:40:00,2,48261,0,0.00,2,2,0,2,42492,50000,2701,50000,0,0,0,0,0.00,0.00,0.00,0.00
2014-04-05 12:50:00,2,49940,0,0.00,2,2,0,2,49656,50000,107,50000,0,0,0,0,0.00,0.00,0.00,0.00
2014-04-05 13:00:00,2,50000,0,0.00,2,2,0,2,50000,50000,0,50000,0,0,0,0,0.00,0.00,0.00,0.00
2014-04-05 13:10:00,2,49909,0,0.00,2,2,0,2,49412,50000,192,50000,0,0,0,0,0.00,0.00,0.00,0.00
2014-04-05 13:20:00,2,48330,0,0.00,2,2,0,2,43786,50000,2150,49489,0,0,0,0,0.00,0.00,0.00,0.00
2014-04-05 13:30:00,2,49856,0,0.00,2,2,0,2,48555,50000,434,50000,0,0,0,0,0.00,0.00,0.00,0.00
2014-04-05 13:40:00,2,50000,0,0.00,2,2,0,2,50000,50000,0,50000,0,0,0,0,0.00,0.00,0.00,0.00
2014-04-05 13:50:00,2,48944,0,0.00,2,2,0,2,46216,50000,1306,49554,0,0,0,0,0.00,0.00,0.00,0.00
2014-04-05 14:00:00,2,49065,0,0.00,2,2,0,2,47113,50000,1001,49398,0,0,0,0,0.00,0.00,0.00,0.00
2014-04-05 14:10:00,2,49910,0,0.00,2,2,0,2,49116,50000,265,50000,0,0,0,0,0.00,0.00,0.00,0.00
2014-04-05 14:20:00,2,49429,0,0.00,2,2,0,2,46523,50000,1116,50000,0,0,0,0,0.00,0.00,0.00,0.00
2014-04-05 14:30:00,2,49366,0,0.00,2,2,0,2,47652,50000,853,50000,0,0,0,0,0.00,0.00,0.00,0.00
2014-04-05 14:40:00,2,49378,0,0.00,2,2,0,2,45980,50000,1256,50000,0,0,0,0,0.00,0.00,0.00,0.00
2014-04-05 14:50:00,2,50000,0,0.00,2,2,0,2,50000,50000,0,50000,0,0,0,0,0.00,0.00,0.00,0.00
2014-04-05 15:00:00,2,49271,0,0.00,2,2,0,2,46995,50000,893,49529,0,0,0,0,0.00,0.00,0.00,0.00
2014-04-05 15:10:00,2,50000,0,0.00,2,2,0,2,50000,50000,0,50000,0,0,0,0,0.00,0.00,0.00,0.00
2014-04-05 15:20:00,2,50000,0,0.00,2,2,0,2,50000,50000,0,50000,0,0,0,0,0.00,0.00,0.00,0.00
2014-04-05 15:30:00,2,50000,0,0.00,2,2,0,2,50000,50000,0,50000,0,0,0,0,0.00,0.00,0.00,0.00
2014-04-05 15:40:00,2,49666,0,0.00,2,2,0,2,48589,50000,524,50000,0,0,0,0,0.00,0.00,0.00,0.00
2014-04-05 15:50:00,2,50000,0,0.00,2,2,0,2,50000,50000,0,50000,0,0,0,0,0.00,0.00,0.00,0.00
2014-04-05 16:00:00,2,49860,0,0.00,2,2,0,2,48595,50000,422,50000,0,0,0,0,0.00,0.00,0.00,0.00
2014-04-05 16:10:00,2,50000,0,0.00,2,2,0,2,50000,50000,0,50000,0,0,0,0,0.00,0.00,0.00,0.00
2014-04-05 16:20:00,2,49974,0,0.00,2,2,0,2,49744,50000,77,50000,0,0,0,0,0.00,0.00,0.00,0.00
2014-04-05 16:30:00,2,49643,0,0.00,2,2,0,2,46928,50000,917,50000,0,0,0,0,0.00,0.00,0.00,0.00
2014-04-05 16:40:00,2,49756,0,0.00,2,2,0,2,48624,50000,464,50000,0,0,0,0,0.00,0.00,0.00,0.00
2014-04-05 16:50:00,2,48081,0,0.00,2,2,0,2,35773,50000,4361,50000,0,0,0,0,0.00,0.00,0.00,0.00
2014-04-05 17:00:00,2,48672,0,0.00,2,2,0,2,38734,50000,3349,50000,0,0,0,0,0.00,0.00,0.00,0.00
2014-04-05 17:10:00,2,49049,0,0.00,2,2,0,2,46301,50000,1424,49992,0,0,0,0,0.00,0.00,0.00,0.00
2014-04-05 17:20:00,2,49108,0,0.00,2,2,0,2,44488,50000,1844,50000,0,0,0,0,0.00,0.00,0.00,0.00
2014-04-05 17:30:00,2,49938,0,0.00,2,2,0,2,49534,50000,142,50000,0,0,0,0,0.00,0.00,0.00,0.00
2014-04-05 17:40:00,2,47366,0,0.00,2,2,0,2,40513,50000,3296,48776,0,0,0,0,0.00,0.00,0.00,0.00
2014-04-05 17:50:00,2,48448,0,0.00,2,2,0,2,44634,50000,1755,48946,0,0,0,0,0.00,0.00,0.00,0.00
2014-04-05 18:00:00,2,49356,0,0.00,2,2,0,2,46419,50000,1179,50000,0,0,0,0,0.00,0.00,0.00,0.00
2014-04-05 18:10:00,2,49696,0,0.00,2,2,0,2,47766,50000,687,50000,0,0,0,0,0.00,0.00,0.00,0.00
2014-04-05 18:20:00,2,49916,0,0.00,2,2,0,2,49552,50000,169,50000,0,0,0,0,0.00,0.00,0.00,0.00
2014-04-05 18:30:00,2,49974,0,0.00,2,2,0,2,49736,50000,79,50000,0,0,0,0,0.00,0.00,0.00,0.00
2014-04-05 18:40:00,2,49798,0,0.00,2,2,0,2,48341,50000,497,50000,0,0,0,0,0.00,0.00,0.00,0.00
2014-04-05 18:50:00,2,50000,0,0.00,2,2,0,2,50000,50000,0,50000,0,0,0,0,0.00,0.00,0.00,0.00
2014-04-05 19:00:00,2,49709,0,0.00,2,2,0,2,47400,50000,775,50000,0,0,0,0,0.00,0.00,0.00,0.00
2014-04-05 19:10:00,2,49697,0,0.00,2,2,0,2,47346,50000,792,50000,0,0,0,0,0.00,0.00,0.00,0.00
2014-04-05 19:20:00,2,49972,0,0.00,2,2,0,2,49723,50000,83,50000,0,0,0,0,0.00,0.00,0.00,0.00
2014-04-05 19:30:00,2,49899,0,0.00,2,2,0,2,49082,50000,274,50000,0,0,0,0,0.00,0.00,0.00,0.00
2014-04-05 19:40:00,2,44747,0,0.00,2,2,0,2,39322,50000,4032,45838,0,0,0,0,0.00,0.00,0.00,0.00
2014-04-05 19:50:00,2,41438,0,0.00,2,2,0,2,27089,49820,7934,44828,0,0,0,0,0.00,0.00,0.00,0.00
2014-04-05 20:00:00,2,21762,0,0.00,2,2,0,2,14587,28557,4462,20070,0,0,0,0,0.00,0.00,0.00,0.00
2014-04-05 20:10:00,2,9047,46,0.13,2,2,0,2,5428,13411,2581,8135,0,77,28,41,0.00,0.40,0.14,0.08
2014-04-05 20:20:00,2,5532,71,0.38,2,2,0,2,4408,6854,714,5398,71,71,0,71,0.20,0.90,0.20,0.30
2014-04-05 20:30:00,2,3332,71,0.67,2,2,0,2,2383,5435,865,3060,71,71,0,71,0.30,1.10,0.24,0.65
2014-04-05 20:40:00,2,5189,71,0.45,2,2,0,2,4030,6583,658,5039,71,71,0,71,0.15,0.90,0.22,0.42
2014-04-05 20:50:00,2,3772,71,1.22,2,2,0,2,2837,5505,761,3663,71,71,0,71,0.55,2.45,0.62,1.00
2014-04-05 21:00:00,2,4424,71,1.10,2,2,0,2,3307,6150,1063,4088,71,71,0,71,0.35,1.75,0.52,1.23
2014-04-05 21:10:00,2,6324,71,0.72,2,2,0,2,4980,7264,683,6303,71,71,0,71,0.20,1.85,0.44,0.65
2014-04-05 21:20:00,2,6647,71,0.70,2,2,0,2,5520,7649,585,6742,71,71,0,71,0.40,1.25,0.25,0.70
2014-04-05 21:30:00,2,4981,71,1.27,2,2,0,2,3503,7693,1191,5076,71,71,0,71,0.50,2.45,0.57,1.25
2014-04-05 21:40:00,2,4321,71,1.07,2,2,0,2,2823,5373,825,4703,71,71,0,71,0.35,1.85,0.52,0.95
2014-04-05 21:50:00,1,,,,1,1,0,1,,,,,,,,,,,,
2014-04-05 22:00:00,1,,,,1,1,0,1,,,,,,,,,,,,
2014-04-05 22:10:00,1,,,,1,1,0,1,,,,,,,,,,,,
2014-04-05 22:20:00,1,,,,1,1,0,1,,,,,,,,,,,,
2014-04-05 22:30:00,1,,,,1,1,0,1,,,,,,,,,,,,
2014-04-05 22:40:00,1,,,,1,1,0,1,,,,,,,,,,,,
2014-04-05 22:50:00,1,,,,1,1,0,1,,,,,,,,,,,,
2014-04-05 23:00:00,1,,,,1,1,0,1,,,,,,,,,,,,
2014-04-05 23:10:00,1,,,,1,1,0,1,,,,,,,,,,,,
2014-04-05 23:20:00,1,,,,1,1,0,1,,,,,,,,,,,,
2014-04-05 23:30:00,1,,,,1,1,0,1,,,,,,,,,,,,
2014-04-05 23:40:00,1,,,,1,1,0,1,,,,,,,,,,,,
2014-04-05 23:50:00,1,,,,1,1,0,1,,,,,,,,,,,,
